Hourly Data Report for May 19, 2021

TOBERMORY RCS
ONTARIO
Current Station Operator: ECCC - MSC

45°14'00.000" N
81°38'00.000" W
213.50 m
6128330
71767
TTR

Download Data

Hourly Data (May 2021)
Hourly Data Report for May 19, 2021
TIME
LST
Temp Definition
°C
Dew Point Definition
°C
Rel Hum Definition
%
Precip. Amount Definition
mm

Wind Dir Definition
10's deg

Wind Spd Definition
km/h
Visibility Definition
km
Stn Press Definition
kPa
Hmdx Definition


Wind Chill Definition


Weather Definition


00:00 12.1 6.6 69 0.0 17 6   99.99     LegendNANA
01:00 11.7 6.4 70 0.0 17 6   99.98     LegendNANA
02:00 12.3 7.3 71 0.0 16 5   99.96     LegendNANA
03:00 12.4 8.2 75 0.0 17 5   99.98     LegendNANA
04:00 13.2 8.8 75 0.0 18 7   99.99     LegendNANA
05:00 14.0 8.8 71 0.0 18 7   100.04     LegendNANA
06:00 13.7 8.9 73 0.0 16 6   100.05     LegendNANA
07:00 14.6 7.9 64 0.0 19 10   100.14     LegendNANA
08:00 16.3 6.9 54 0.0 19 9   100.17     LegendNANA
09:00 15.4 6.8 56 0.0 18 7   100.20     LegendNANA
10:00 17.0 7.0 52 0.0 18 11   100.20     LegendNANA
11:00 17.4 6.5 49 0.0 17 9   100.18     LegendNANA
12:00 19.3 6.2 42 0.0 18 11   100.15     LegendNANA
13:00 20.7 6.2 39 0.0 19 12   100.11     LegendNANA
14:00 21.5 6.8 39 0.0 19 11   100.10     LegendNANA
15:00 22.7 7.5 37 0.0 20 8   100.05     LegendNANA
16:00 22.7 7.9 39 0.0 20 9   100.00     LegendNANA
17:00 22.5 8.0 39 0.0 19 9   99.97     LegendNANA
18:00 21.0 7.8 42 0.0 16 6   99.93     LegendNANA
19:00 20.8 9.8 49 0.0 11 11   99.90     LegendNANA
20:00 20.2 9.2 49 0.0 13 13   99.88     LegendNANA
21:00 20.0 9.1 49 0.0 13 13   99.90     LegendNANA
22:00 18.4 11.3 63 0.0 13 10   99.89     LegendNANA
23:00 20.0 9.7 52 0.0 16 7   99.91     LegendNANA

Notes on Data Quality.

Legend

  • E = Estimated
  • M = Missing
  • NA = Not Available*
  • [empty] = Indicates an unobserved value
Date modified: